Time,TemperatureF,DewpointF,PressureIn,WindDirection,WindDirectionDegrees,WindSpeedMPH,WindSpeedGustMPH,Humidity,HourlyPrecipIn,Conditions,Clouds,dailyrainin,SoftwareType,DateUTC
2013-03-02 00:09:00,7.9,6.0,30.14,SSE,167,0.0,0.0,90,0.00,,,0.00,weatherlink.com 1.10,2013-03-02 09:09:00,
2013-03-02 00:24:00,7.7,5.0,30.15,SSE,167,0.0,0.0,90,0.00,,,0.00,weatherlink.com 1.10,2013-03-02 09:24:00,
2013-03-02 00:39:00,7.2,5.0,30.15,SSE,166,0.0,0.0,90,0.00,,,0.00,weatherlink.com 1.10,2013-03-02 09:39:00,
2013-03-02 00:54:00,7.2,5.0,30.15,SSE,166,0.0,0.0,90,0.00,,,0.00,weatherlink.com 1.10,2013-03-02 09:54:00,
2013-03-02 01:24:00,6.5,4.0,30.16,SSE,167,0.0,0.0,90,0.00,,,0.00,weatherlink.com 1.10,2013-03-02 10:24:00,
2013-03-02 01:39:00,6.4,4.0,30.16,SSE,166,0.0,0.0,91,0.00,,,0.00,weatherlink.com 1.10,2013-03-02 10:39:00,
2013-03-02 01:55:00,6.4,4.0,30.17,SSE,166,0.0,0.0,91,0.00,,,0.00,weatherlink.com 1.10,2013-03-02 10:55:00,
2013-03-02 02:10:00,6.4,4.0,30.17,SSE,167,0.0,0.0,90,0.00,,,0.00,weatherlink.com 1.10,2013-03-02 11:10:00,
2013-03-02 02:25:00,5.9,3.0,30.17,SSE,166,0.0,0.0,89,0.00,,,0.00,weatherlink.com 1.10,2013-03-02 11:25:00,
2013-03-02 02:40:00,5.9,4.0,30.17,SSE,166,0.0,0.0,90,0.00,,,0.00,weatherlink.com 1.10,2013-03-02 11:40:00,
2013-03-02 02:55:00,6.1,4.0,30.17,SSE,166,0.0,0.0,90,0.00,,,0.00,weatherlink.com 1.10,2013-03-02 11:55:00,
2013-03-02 03:10:00,6.3,4.0,30.17,SSE,167,0.0,0.0,90,0.00,,,0.00,weatherlink.com 1.10,2013-03-02 12:10:00,
2013-03-02 03:25:00,6.6,4.0,30.18,SSE,167,0.0,0.0,90,0.00,,,0.00,weatherlink.com 1.10,2013-03-02 12:25:00,
2013-03-02 03:40:00,7.0,5.0,30.18,SSE,166,0.0,0.0,90,0.00,,,0.00,weatherlink.com 1.10,2013-03-02 12:40:00,
2013-03-02 03:55:00,6.9,4.0,30.18,SSE,167,0.0,0.0,89,0.00,,,0.00,weatherlink.com 1.10,2013-03-02 12:55:00,
2013-03-02 04:10:00,6.5,4.0,30.18,SSE,167,0.0,0.0,89,0.00,,,0.00,weatherlink.com 1.10,2013-03-02 13:10:00,
2013-03-02 04:25:00,6.3,4.0,30.19,SSE,166,0.0,0.0,90,0.00,,,0.00,weatherlink.com 1.10,2013-03-02 13:25:00,
2013-03-02 04:40:00,5.8,3.0,30.19,SSE,167,0.0,0.0,89,0.00,,,0.00,weatherlink.com 1.10,2013-03-02 13:40:00,
2013-03-02 04:55:00,5.4,3.0,30.19,SSE,167,0.0,0.0,90,0.00,,,0.00,weatherlink.com 1.10,2013-03-02 13:55:00,
2013-03-02 05:10:00,5.1,3.0,30.19,SSE,167,0.0,0.0,90,0.00,,,0.00,weatherlink.com 1.10,2013-03-02 14:10:00,
2013-03-02 05:25:00,4.9,2.0,30.19,SSE,167,0.0,0.0,89,0.00,,,0.00,weatherlink.com 1.10,2013-03-02 14:25:00,
2013-03-02 05:40:00,4.7,2.0,30.19,SSE,166,0.0,0.0,90,0.00,,,0.00,weatherlink.com 1.10,2013-03-02 14:40:00,
2013-03-02 05:55:00,4.1,2.0,30.20,SSE,167,0.0,0.0,89,0.00,,,0.00,weatherlink.com 1.10,2013-03-02 14:55:00,
2013-03-02 06:10:00,3.8,2.0,30.20,SSE,167,0.0,0.0,90,0.00,,,0.00,weatherlink.com 1.10,2013-03-02 15:10:00,
2013-03-02 06:25:00,3.7,1.0,30.20,SSE,167,0.0,0.0,89,0.00,,,0.00,weatherlink.com 1.10,2013-03-02 15:25:00,
2013-03-02 06:40:00,3.8,2.0,30.20,SSE,167,0.0,0.0,90,0.00,,,0.00,weatherlink.com 1.10,2013-03-02 15:40:00,
2013-03-02 06:55:00,3.6,1.0,30.20,SSE,166,0.0,0.0,89,0.00,,,0.00,weatherlink.com 1.10,2013-03-02 15:55:00,
2013-03-02 07:10:00,3.0,1.0,30.20,SSE,167,0.0,0.0,89,0.00,,,0.00,weatherlink.com 1.10,2013-03-02 16:10:00,
2013-03-02 07:25:00,2.8,0.0,30.20,SSE,167,0.0,0.0,89,0.00,,,0.00,weatherlink.com 1.10,2013-03-02 16:25:00,
2013-03-02 07:40:00,3.0,1.0,30.20,SSE,167,0.0,0.0,89,0.00,,,0.00,weatherlink.com 1.10,2013-03-02 16:40:00,
2013-03-02 07:55:00,3.2,1.0,30.19,SSE,167,0.0,0.0,89,0.00,,,0.00,weatherlink.com 1.10,2013-03-02 16:55:00,
2013-03-02 08:10:00,3.0,1.0,30.19,SSE,166,0.0,0.0,89,0.00,,,0.00,weatherlink.com 1.10,2013-03-02 17:10:00,
2013-03-02 08:25:00,2.7,0.0,30.19,SSE,166,0.0,0.0,88,0.00,,,0.00,weatherlink.com 1.10,2013-03-02 17:25:00,
2013-03-02 08:40:00,2.2,-1.0,30.19,SSE,167,0.0,0.0,88,0.00,,,0.00,weatherlink.com 1.10,2013-03-02 17:40:00,
2013-03-02 08:55:00,1.7,-1.0,30.18,SSE,167,0.0,0.0,88,0.00,,,0.00,weatherlink.com 1.10,2013-03-02 17:55:00,
2013-03-02 09:10:00,1.5,-1.0,30.19,SSE,167,0.0,0.0,88,0.00,,,0.00,weatherlink.com 1.10,2013-03-02 18:10:00,
2013-03-02 09:26:00,1.5,-1.0,30.19,SSE,166,0.0,0.0,89,0.00,,,0.00,weatherlink.com 1.10,2013-03-02 18:26:00,
2013-03-02 09:41:00,2.9,1.0,30.20,SSE,167,0.0,0.0,90,0.00,,,0.00,weatherlink.com 1.10,2013-03-02 18:41:00,
2013-03-02 09:56:00,3.7,2.0,30.20,SSE,167,0.0,0.0,90,0.00,,,0.00,weatherlink.com 1.10,2013-03-02 18:56:00,
2013-03-02 10:11:00,4.4,2.0,30.20,SSE,167,0.0,0.0,90,0.00,,,0.00,weatherlink.com 1.10,2013-03-02 19:11:00,
2013-03-02 10:26:00,5.2,3.0,30.21,SSE,167,0.0,0.0,91,0.00,,,0.00,weatherlink.com 1.10,2013-03-02 19:26:00,
2013-03-02 10:41:00,6.2,4.0,30.21,South,176,0.0,0.0,90,0.00,,,0.00,weatherlink.com 1.10,2013-03-02 19:41:00,
2013-03-02 10:56:00,7.0,5.0,30.22,SSW,193,0.0,0.0,90,0.00,,,0.00,weatherlink.com 1.10,2013-03-02 19:56:00,
2013-03-02 11:11:00,8.0,6.0,30.22,SW,222,0.0,0.0,89,0.00,,,0.00,weatherlink.com 1.10,2013-03-02 20:11:00,
2013-03-02 11:26:00,9.0,6.0,30.22,SSW,195,0.0,0.0,89,0.00,,,0.00,weatherlink.com 1.10,2013-03-02 20:26:00,
2013-03-02 11:41:00,9.6,7.0,30.22,SSW,198,0.0,0.0,88,0.00,,,0.00,weatherlink.com 1.10,2013-03-02 20:41:00,
2013-03-02 11:56:00,10.0,7.0,30.22,SSW,200,0.0,0.0,87,0.00,,,0.00,weatherlink.com 1.10,2013-03-02 20:56:00,
2013-03-02 12:11:00,10.9,8.0,30.22,SSW,207,0.0,0.0,87,0.00,,,0.00,weatherlink.com 1.10,2013-03-02 21:11:00,
2013-03-02 12:26:00,12.8,9.0,30.23,SSW,210,0.0,0.0,86,0.00,,,0.00,weatherlink.com 1.10,2013-03-02 21:26:00,
2013-03-02 12:41:00,14.1,10.0,30.23,SSW,208,0.0,0.0,83,0.00,,,0.00,weatherlink.com 1.10,2013-03-02 21:41:00,
2013-03-02 12:57:00,15.1,11.0,30.23,SW,235,0.0,0.0,83,0.00,,,0.00,weatherlink.com 1.10,2013-03-02 21:57:00,
2013-03-02 13:12:00,15.4,11.0,30.23,SW,217,0.0,0.0,83,0.00,,,0.00,weatherlink.com 1.10,2013-03-02 22:12:00,
2013-03-02 13:27:00,15.9,11.0,30.23,SW,214,0.0,0.0,82,0.00,,,0.00,weatherlink.com 1.10,2013-03-02 22:27:00,
2013-03-02 13:42:00,16.3,12.0,30.23,SW,235,0.0,0.0,82,0.00,,,0.00,weatherlink.com 1.10,2013-03-02 22:42:00,
2013-03-02 13:57:00,17.0,12.0,30.22,SSW,192,0.0,0.0,80,0.00,,,0.00,weatherlink.com 1.10,2013-03-02 22:57:00,
2013-03-02 14:12:00,17.1,12.0,30.22,ENE,68,0.0,0.0,80,0.00,,,0.00,weatherlink.com 1.10,2013-03-02 23:12:00,
2013-03-02 14:27:00,17.2,13.0,30.22,WNW,303,0.0,0.0,82,0.00,,,0.00,weatherlink.com 1.10,2013-03-02 23:27:00,
2013-03-02 14:57:00,18.1,13.0,30.21,SSW,207,0.0,0.0,80,0.00,,,0.00,weatherlink.com 1.10,2013-03-02 23:57:00,
2013-03-02 15:12:00,18.4,13.0,30.21,SE,136,0.0,0.0,80,0.00,,,0.00,weatherlink.com 1.10,2013-03-03 00:12:00,
2013-03-02 15:27:00,18.2,13.0,30.21,ESE,111,0.0,0.0,81,0.00,,,0.00,weatherlink.com 1.10,2013-03-03 00:27:00,
2013-03-02 15:42:00,18.1,13.0,30.21,West,259,0.0,0.0,81,0.00,,,0.00,weatherlink.com 1.10,2013-03-03 00:42:00,
2013-03-02 15:57:00,18.0,13.0,30.21,West,275,0.0,0.0,82,0.00,,,0.00,weatherlink.com 1.10,2013-03-03 00:57:00,
2013-03-02 16:12:00,17.5,14.0,30.21,NNW,332,0.0,0.0,84,0.00,,,0.00,weatherlink.com 1.10,2013-03-03 01:12:00,
2013-03-02 16:28:00,17.2,13.0,30.21,SE,129,0.0,0.0,84,0.00,,,0.00,weatherlink.com 1.10,2013-03-03 01:28:00,
2013-03-02 16:43:00,17.1,13.0,30.21,SE,131,0.0,0.0,85,0.00,,,0.00,weatherlink.com 1.10,2013-03-03 01:43:00,
2013-03-02 16:58:00,16.8,13.0,30.21,SE,136,0.0,0.0,85,0.00,,,0.00,weatherlink.com 1.10,2013-03-03 01:58:00,
2013-03-02 17:13:00,16.3,13.0,30.21,SE,136,0.0,0.0,86,0.00,,,0.00,weatherlink.com 1.10,2013-03-03 02:13:00,
2013-03-02 17:28:00,15.9,13.0,30.21,SE,135,0.0,0.0,86,0.00,,,0.00,weatherlink.com 1.10,2013-03-03 02:28:00,
2013-03-02 17:43:00,15.4,12.0,30.21,SE,136,0.0,0.0,87,0.00,,,0.00,weatherlink.com 1.10,2013-03-03 02:43:00,
2013-03-02 17:58:00,14.7,12.0,30.22,SE,136,0.0,0.0,88,0.00,,,0.00,weatherlink.com 1.10,2013-03-03 02:58:00,
2013-03-02 18:13:00,13.8,11.0,30.22,SE,135,0.0,0.0,88,0.00,,,0.00,weatherlink.com 1.10,2013-03-03 03:13:00,
2013-03-02 18:28:00,12.8,10.0,30.23,SE,136,0.0,0.0,88,0.00,,,0.00,weatherlink.com 1.10,2013-03-03 03:28:00,
2013-03-02 18:43:00,12.0,9.0,30.23,SE,136,0.0,0.0,88,0.00,,,0.00,weatherlink.com 1.10,2013-03-03 03:43:00,
2013-03-02 18:58:00,11.3,9.0,30.24,SE,135,0.0,0.0,89,0.00,,,0.00,weatherlink.com 1.10,2013-03-03 03:58:00,
2013-03-02 19:13:00,10.6,8.0,30.24,SE,136,0.0,0.0,89,0.00,,,0.00,weatherlink.com 1.10,2013-03-03 04:13:00,
2013-03-02 19:28:00,9.9,8.0,30.24,SE,136,0.0,0.0,90,0.00,,,0.00,weatherlink.com 1.10,2013-03-03 04:28:00,
2013-03-02 19:43:00,9.6,7.0,30.24,SE,136,0.0,0.0,90,0.00,,,0.00,weatherlink.com 1.10,2013-03-03 04:43:00,
2013-03-02 19:58:00,9.2,7.0,30.24,SE,136,0.0,0.0,90,0.00,,,0.00,weatherlink.com 1.10,2013-03-03 04:58:00,
2013-03-02 20:13:00,8.7,7.0,30.25,SE,136,0.0,0.0,91,0.00,,,0.00,weatherlink.com 1.10,2013-03-03 05:13:00,
2013-03-02 20:28:00,8.1,6.0,30.26,SE,136,0.0,0.0,91,0.00,,,0.00,weatherlink.com 1.10,2013-03-03 05:28:00,
2013-03-02 20:43:00,7.9,6.0,30.26,SE,136,0.0,0.0,91,0.00,,,0.00,weatherlink.com 1.10,2013-03-03 05:43:00,
2013-03-02 20:59:00,7.3,5.0,30.27,SE,135,0.0,0.0,90,0.00,,,0.00,weatherlink.com 1.10,2013-03-03 05:59:00,
2013-03-02 21:14:00,7.4,5.0,30.27,SE,135,0.0,0.0,91,0.00,,,0.00,weatherlink.com 1.10,2013-03-03 06:14:00,
2013-03-02 21:29:00,7.6,6.0,30.27,SE,135,0.0,0.0,92,0.00,,,0.00,weatherlink.com 1.10,2013-03-03 06:29:00,
2013-03-02 21:44:00,7.7,6.0,30.27,SE,135,0.0,0.0,91,0.00,,,0.00,weatherlink.com 1.10,2013-03-03 06:44:00,
2013-03-02 21:59:00,6.7,4.0,30.27,SE,135,0.0,0.0,90,0.00,,,0.00,weatherlink.com 1.10,2013-03-03 06:59:00,
2013-03-02 22:14:00,5.8,4.0,30.27,SE,135,0.0,0.0,90,0.00,,,0.00,weatherlink.com 1.10,2013-03-03 07:14:00,
2013-03-02 22:29:00,5.6,3.0,30.28,SE,136,0.0,0.0,90,0.00,,,0.00,weatherlink.com 1.10,2013-03-03 07:29:00,
2013-03-02 22:44:00,5.9,4.0,30.28,SE,135,0.0,0.0,91,0.00,,,0.00,weatherlink.com 1.10,2013-03-03 07:44:00,
2013-03-02 22:59:00,6.3,4.0,30.29,SE,135,0.0,0.0,91,0.00,,,0.00,weatherlink.com 1.10,2013-03-03 07:59:00,
2013-03-02 23:14:00,6.3,4.0,30.29,West,267,0.0,0.0,90,0.00,,,0.00,weatherlink.com 1.10,2013-03-03 08:14:00,
2013-03-02 23:29:00,5.1,3.0,30.29,West,267,0.0,0.0,90,0.00,,,0.00,weatherlink.com 1.10,2013-03-03 08:29:00,
2013-03-02 23:44:00,4.8,2.0,30.30,West,267,0.0,0.0,88,0.00,,,0.00,weatherlink.com 1.10,2013-03-03 08:44:00,
2013-03-02 23:59:00,4.7,3.0,30.30,North,6,0.0,0.0,92,0.00,,,0.00,weatherlink.com 1.10,2013-03-03 08:59:00,